CDT,Max TemperatureF,Mean TemperatureF,Min TemperatureF,Max Dew PointF,MeanDew PointF,Min DewpointF,Max Humidity, Mean Humidity, Min Humidity, Max Sea Level PressureIn, Mean Sea Level PressureIn, Min Sea Level PressureIn, Max VisibilityMiles, Mean VisibilityMiles, Min VisibilityMiles, Max Wind SpeedMPH, Mean Wind SpeedMPH, Max Gust SpeedMPH,PrecipitationIn, CloudCover, Events, WindDirDegrees
2013-3-1,49,38,27,29,27,23,92,66,39,30.25,30.19,30.14,10,10,9,14,6,21,0.00,3,,330
2013-3-2,46,37,27,27,22,20,85,62,38,30.33,30.27,30.24,10,10,10,17,7,25,0.00,3,,320
2013-3-3,59,41,23,31,25,22,92,60,28,30.27,30.16,30.00,10,10,9,15,5,18,0.00,0,,153
2013-3-4,74,60,45,56,47,32,80,63,46,29.96,29.80,29.69,10,10,10,24,14,39,0.00,0,,175
2013-3-5,62,51,39,59,37,20,90,58,26,30.30,30.07,29.75,10,10,6,28,12,37,T,3,Rain,287
2013-3-6,59,46,33,32,25,21,70,47,24,30.40,30.33,30.28,10,10,10,15,5,18,0.00,0,,332
2013-3-7,63,47,30,34,31,28,92,61,29,30.38,30.29,30.23,10,10,10,10,3,15,0.00,0,,94
2013-3-8,69,51,33,39,34,31,100,62,23,30.32,30.23,30.10,10,10,9,14,4,17,T,1,,93
2013-3-9,68,59,50,57,51,42,84,68,51,30.13,29.99,29.86,10,10,7,18,7,24,0.00,4,,151
2013-3-10,63,54,44,60,52,34,100,84,67,29.99,29.84,29.73,10,8,2,23,10,31,0.70,7,Rain-Thunderstorm,224
2013-3-11,53,44,34,34,30,27,85,62,38,30.07,30.01,29.96,10,10,10,16,7,24,0.00,1,,280
2013-3-12,65,47,29,39,30,19,100,62,23,30.28,30.18,30.08,10,10,8,12,2,15,0.00,0,,335
2013-3-13,63,50,36,36,28,19,85,52,19,30.46,30.39,30.29,10,10,10,16,5,23,0.00,0,,348
2013-3-14,71,52,32,42,34,30,92,59,26,30.44,30.33,30.20,10,10,8,16,4,23,0.00,0,,185
2013-3-15,79,63,46,50,45,41,86,58,30,30.21,30.09,29.96,10,10,10,18,9,24,0.00,0,,206
2013-3-16,79,68,56,55,51,47,93,63,32,29.98,29.91,29.81,10,10,10,21,10,26,0.00,2,,191
2013-3-17,77,68,58,62,58,54,90,72,54,29.88,29.81,29.68,10,10,10,20,8,25,T,7,Rain,177
2013-3-18,67,59,51,63,57,47,100,82,63,30.04,29.82,29.71,10,9,4,21,8,26,0.01,6,Rain,321
2013-3-19,66,52,38,44,35,28,93,60,26,30.17,30.09,30.03,10,10,10,21,8,24,0.00,0,,52
2013-3-20,64,52,39,34,29,24,73,48,22,30.29,30.18,30.10,10,10,10,17,6,23,0.00,0,,355
2013-3-21,51,45,38,38,29,19,71,50,29,30.08,29.97,29.82,10,10,6,17,8,22,T,4,Rain,80
2013-3-22,49,46,42,48,44,38,100,96,92,29.88,29.82,29.77,10,4,2,16,9,20,0.21,8,Rain-Thunderstorm,56
2013-3-23,53,50,46,52,49,45,100,97,93,29.90,29.76,29.64,10,5,1,13,6,16,0.32,8,Rain-Thunderstorm,35
2013-3-24,48,40,32,47,38,28,100,77,53,30.11,29.84,29.66,10,7,0,,,,0.20,6,Fog,-1
2013-3-25,51,40,28,27,22,18,78,54,29,30.36,30.23,30.11,10,10,2,24,12,32,0.00,0,,312
2013-3-26,52,40,27,31,24,20,89,60,30,30.46,30.39,30.35,10,10,10,14,5,20,0.00,0,,305
2013-3-27,63,46,29,33,29,27,92,59,25,30.43,30.33,30.23,10,10,10,14,4,24,0.00,0,,136
2013-3-28,71,54,37,48,40,32,85,61,36,30.33,30.26,30.19,10,10,10,13,4,15,0.00,4,,146
2013-3-29,75,65,54,62,51,40,93,70,46,30.22,30.17,30.10,10,10,10,16,6,22,T,6,,208
2013-3-30,71,63,55,63,59,54,100,87,73,30.12,30.04,29.96,10,8,2,12,4,16,0.24,6,Rain,209
2013-3-31,69,60,50,63,58,51,100,84,68,30.03,29.94,29.86,10,6,1,32,4,40,0.88,5,Rain-Thunderstorm,208